Tracking 29892 objects as of 21-Nov-2024
HD Live streaming from Space Station
objects crossing your sky now

STARLINK-5941

Track STARLINK-5941 now!
10-day predictions
STARLINK-5941 is classified as:


NORAD ID: 56013
Int'l Code: 2023-042AD
Perigee: 565.3 km
Apogee: 567.0 km
Inclination: 43.0 °
Period: 95.8 minutes
Semi major axis: 6937 km
RCS: Unknown
Launch date: March 24, 2022
Source: United States (US)
Launch site: AIR FORCE EASTERN TEST RANGE (AFETR)
Your satellite tracking list
Your tracking list is empty




NASA's NSSDC Master Catalog

Two Line Element Set (TLE):
1 56013U 23042AD  24325.42154782  .00002813  00000-0  22312-3 0  9992
2 56013  43.0029 112.6708 0001265 264.6823  95.3875 15.02554698 91579
Source of the keplerian elements: AFSPC